Home > Weather > Abidjan > Past weeks

Flag for Cote d'Ivoire (Ivory Coast) Weather for the Past 2 Weeks in Abidjan, Cote d'Ivoire (Ivory Coast)

Now
79 °F

Clear.


Feels Like: 82 °F
Forecast: 77 / 91 °F
Wind: 2 mph from West

Location: Abidjan Airport

Current Time: Feb 11, 2016 at 2:29:03 AM

Latest Report: Feb 11, 2016 at 2:00 AM


Visibility: 4 mi

Pressure: 29.83 "Hg

Humidity: 89%

Dew point: 75 °F

Location of AbidjanLocation

Historic Weather in Abidjan — Graph

°F

Abidjan Temperature Yesterday

Maximum temperature yesterday: 93 °F (at 12:30 PM)
Minimum temperature yesterday: 81 °F (at 12:00 AM)
Average temperature yesterday: 85 °F

High & Low Weather Summary for the Past Weeks

 TemperatureHumidityPressure
High93 °F (Feb 10, 12:30 PM)100% (Jan 27, 1:00 AM)29.98 "Hg (Jan 27, 1:00 AM)
Low48 °F (Feb 4, 4:30 PM)17% (Jan 29, 2:30 PM)29.77 "Hg (Jan 29, 4:30 PM)
Average82 °F78%29.89 "Hg
* Reported Jan 27 1:00 AM — Feb 11 1:00 AM, Abidjan, Weather by CustomWeather, © 2016

Note: Actual official high and low records may vary slightly from our data, if they occured in-between our weather recording intervals... More about our weather records

Advertising

Abidjan Weather History for the Previous 24 Hours

 ConditionsComfort  
Time TempWeatherWind HumidityBarometerVisibility
1:00 AM
Thu, Feb 11
79 °FClear.2 mph94%29.86 "Hg4 mi
12:30 AM79 °FClear.5 mph94%29.86 "Hg4 mi
11:30 PM
Wed, Feb 10
81 °FClear.6 mph94%29.86 "Hg4 mi
11:00 PM81 °FClear.5 mph89%29.86 "Hg4 mi
10:00 PM81 °FClear.7 mph94%29.86 "Hg4 mi
9:00 PM82 °FClear.6 mph89%29.86 "Hg4 mi
8:30 PM82 °FClear.7 mph84%29.83 "Hg4 mi
8:00 PM82 °FClear.7 mph84%29.83 "Hg4 mi
7:30 PM82 °FClear.6 mph84%29.80 "Hg4 mi
7:00 PM84 °FClear.6 mph74%29.80 "Hg4 mi
6:30 PM84 °FClear.6 mph70%29.80 "Hg4 mi
6:00 PM86 °FClear.7 mph59%29.77 "Hg4 mi
5:30 PM88 °FClear.8 mph43%29.77 "Hg4 mi
5:00 PM90 °FClear.12 mph43%29.77 "Hg4 mi
4:30 PM90 °FClear.14 mph46%29.77 "Hg4 mi
4:00 PM90 °FClear.13 mph46%29.77 "Hg4 mi
3:00 PM90 °FClear.14 mph52%29.80 "Hg4 mi
2:30 PM90 °FClear.14 mph52%29.80 "Hg4 mi
2:00 PM91 °FClear.15 mph52%29.83 "Hg4 mi
1:30 PM93 °FClear.5 mph47%29.83 "Hg4 mi
1:00 PM93 °FClear.3 mph30%29.86 "Hg4 mi
12:30 PM93 °FClear.7 mph32%29.86 "Hg4 mi
12:00 PM91 °FClear.8 mph36%29.89 "Hg4 mi
11:30 AM91 °FClear.8 mph30%29.89 "Hg4 mi
11:00 AM91 °FClear.8 mph38%29.92 "Hg4 mi
10:30 AM88 °FClear.6 mph59%29.92 "Hg4 mi
10:00 AM86 °FScattered clouds.6 mph66%29.95 "Hg4 mi
9:30 AM86 °FScattered clouds.6 mph66%29.95 "Hg4 mi
9:00 AM84 °FScattered clouds.6 mph79%29.95 "Hg4 mi
8:30 AM81 °FScattered clouds.8 mph94%29.95 "Hg4 mi
8:00 AM81 °FScattered clouds.9 mph89%29.95 "Hg4 mi
7:30 AM81 °FScattered clouds.6 mph94%29.92 "Hg4 mi
7:00 AM81 °FScattered clouds.3 mph94%29.92 "Hg4 mi
6:30 AM81 °FPassing clouds.2 mph94%29.89 "Hg4 mi
6:00 AM81 °FPassing clouds.2 mph94%29.89 "Hg4 mi
5:30 AM81 °FPassing clouds.2 mph94%29.86 "Hg4 mi
5:00 AM81 °FPassing clouds.5 mph94%29.86 "Hg4 mi
4:30 AM81 °FPassing clouds.2 mph94%29.86 "Hg4 mi
4:00 AM81 °FPassing clouds.2 mph94%29.86 "Hg4 mi
3:30 AM81 °FPassing clouds.2 mph94%29.86 "Hg4 mi
3:00 AM81 °FPassing clouds.5 mph94%29.89 "Hg4 mi
2:30 AM81 °FPassing clouds.6 mph100%29.89 "Hg4 mi
2:00 AM81 °FPassing clouds.3 mph100%29.89 "Hg4 mi
Weather by CustomWeather, © 2016

See weather overviewHow to use our weather pages